GW2765 Weather Reports


time (UTC)temp
C
wind
direction
speed
KPH
gust
KPH
rain 1hr
cm
rain 24hr
cm
rain mn
cm
humidity
%
barometer
mb
20260905020902 33 338 6.4 16.1 0.00 0.00 0.00 22 1007.9
20260905020400 34 318 6.4 19.3 0.00 0.00 0.00 21 1008.0
20260905015902 34 317 4.8 19.3 0.00 0.00 0.00 21 1007.8
20260905015402 34 337 3.2 14.5 0.00 0.00 0.00 21 1007.9
20260905014856 35 352 3.2 9.7 0.00 0.00 0.00 21 1007.9
20260905014350 35 43 4.8 9.7 0.00 0.00 0.00 21 1008.0
20260905013850 35 344 3.2 9.7 0.00 0.00 0.00 21 1007.9
20260905013348 35 339 3.2 11.3 0.00 0.00 0.00 21 1007.8
20260905013110 36 348 1.6 11.3 0.00 0.00 0.00 21 1007.9
20260905012614 36 346 0.0 6.4 0.00 0.00 0.00 20 1007.9
20260905011846 36 58 0.0 3.2 0.00 0.00 0.00 19 1007.7
20260905011347 36 52 0.0 1.6 0.00 0.00 0.00 19 1007.8
20260905010846 37 21 0.0 1.6 0.00 0.00 0.00 18 1008.0
20260905010344 37 18 0.0 4.8 0.00 0.00 0.00 18 1008.0
20260905005843 37 15 1.6 4.8 0.00 0.00 0.00 19 1008.0
20260905005342 37 10 1.6 4.8 0.00 0.00 0.00 20 1007.9
20260905004842 37 44 1.6 4.8 0.00 0.00 0.00 19 1007.9
20260905004613 37 349 1.6 9.7 0.00 0.00 0.00 18 1007.9
20260905004108 37 12 3.2 9.7 0.00 0.00 0.00 18 1007.8
20260905003608 37 326 1.6 9.7 0.00 0.00 0.00 18 1007.8
20260905003108 37 32 1.6 6.4 0.00 0.00 0.00 19 1007.9
20260905002340 37 172 1.6 6.4 0.00 0.00 0.00 18 1007.9
20260905001839 37 337 1.6 6.4 0.00 0.00 0.00 18 1007.9
20260905001606 37 62 1.6 6.4 0.00 0.00 0.00 18 1008.0
20260905000835 37 122 3.2 8.0 0.00 0.00 0.00 18 1008.0
20260905000334 37 55 3.2 8.0 0.00 0.00 0.00 18 1008.0
20260904235834 37 73 3.2 9.7 0.00 0.00 0.00 19 1008.0
20260904235333 37 103 3.2 9.7 0.00 0.00 0.00 19 1008.0
20260904234832 37 65 3.2 8.0 0.00 0.00 0.00 19 1008.0
20260904234332 37 114 1.6 6.4 0.00 0.00 0.00 18 1008.1
20260904233830 37 126 1.6 4.8 0.00 0.00 0.00 19 1008.1
20260904233330 36 124 1.6 8.0 0.00 0.00 0.00 18 1008.1
20260904232830 37 48 1.6 8.0 0.00 0.00 0.00 19 1008.1
20260904232331 36 56 1.6 6.4 0.00 0.00 0.00 20 1008.0
20260904231830 36 41 3.2 8.0 0.00 0.00 0.00 19 1008.1
20260904231330 37 89 3.2 8.0 0.00 0.00 0.00 19 1008.2
20260904230829 37 41 3.2 9.7 0.00 0.00 0.00 19 1008.2
20260904230329 37 38 3.2 9.7 0.00 0.00 0.00 19 1008.4
20260904225831 37 53 3.2 11.3 0.00 0.00 0.00 19 1008.4
20260904225330 37 127 3.2 11.3 0.00 0.00 0.00 19 1008.5
20260904224829 37 113 1.6 8.0 0.00 0.00 0.00 19 1008.5
20260904224329 37 307 3.2 9.7 0.00 0.00 0.00 20 1008.4
20260904223829 36 89 3.2 9.7 0.00 0.00 0.00 19 1008.4
20260904223330 36 347 3.2 8.0 0.00 0.00 0.00 18 1008.6
20260904222831 36 357 3.2 8.0 0.00 0.00 0.00 19 1008.6
20260904222329 36 8 1.6 9.7 0.00 0.00 0.00 18 1008.7
20260904221830 37 316 1.6 9.7 0.00 0.00 0.00 18 1008.7
20260904221329 36 86 1.6 8.0 0.00 0.00 0.00 17 1008.8
20260904220829 36 8 3.2 9.7 0.00 0.00 0.00 20 1008.8
20260904220330 36 61 3.2 9.7 0.00 0.00 0.00 18 1008.8
20260904215829 36 359 1.6 4.8 0.00 0.00 0.00 18 1008.9
20260904215557 36 304 1.6 8.0 0.00 0.00 0.00 18 1008.9
20260904214830 35 316 1.6 8.0 0.00 0.00 0.00 18 1008.9
20260904214554 36 18 3.2 9.7 0.00 0.00 0.00 18 1009.2
20260904213829 36 348 3.2 9.7 0.00 0.00 0.00 19 1009.3
20260904213329 36 30 3.2 9.7 0.00 0.00 0.00 19 1009.2
20260904213054 35 319 3.2 9.7 0.00 0.00 0.00 19 1009.4
20260904212330 35 330 3.2 9.7 0.00 0.00 0.00 18 1009.4
20260904211831 36 328 3.2 9.7 0.00 0.00 0.00 17 1009.3
20260904211601 36 330 1.6 9.7 0.00 0.00 0.00 17 1009.3
20260904210829 36 81 1.6 6.4 0.00 0.00 0.00 17 1009.3
20260904210330 36 217 1.6 8.0 0.00 0.00 0.00 17 1009.3
20260904205830 35 316 3.2 8.0 0.00 0.00 0.00 20 1009.4
20260904205329 36 349 3.2 9.7 0.00 0.00 0.00 19 1009.5
20260904204831 36 51 1.6 9.7 0.00 0.00 0.00 19 1009.6
20260904204330 36 224 1.6 6.4 0.00 0.00 0.00 18 1009.7
20260904203829 35 314 1.6 6.4 0.00 0.00 0.00 19 1009.7
20260904203329 35 44 3.2 11.3 0.00 0.00 0.00 19 1009.8
20260904202828 35 34 1.6 11.3 0.00 0.00 0.00 18 1009.7
20260904202329 35 176 1.6 6.4 0.00 0.00 0.00 18 1009.7
20260904202056 35 20 1.6 8.0 0.00 0.00 0.00 19 1009.7
20260904201329 35 82 3.2 8.0 0.00 0.00 0.00 18 1009.7
20260904201058 35 6 1.6 6.4 0.00 0.00 0.00 20 1009.7
20260904200327 35 113 1.6 6.4 0.00 0.00 0.00 19 1009.9
20260904195822 35 63 1.6 6.4 0.00 0.00 0.00 18 1009.9
20260904195316 35 338 1.6 9.7 0.00 0.00 0.00 19 1010.1
20260904194816 35 122 1.6 9.7 0.00 0.00 0.00 19 1010.1
20260904194315 34 311 1.6 11.3 0.00 0.00 0.00 18 1010.2
20260904193812 34 339 1.6 11.3 0.00 0.00 0.00 18 1010.3
20260904193310 34 80 1.6 8.0 0.00 0.00 0.00 20 1010.3
20260904192808 34 60 1.6 8.0 0.00 0.00 0.00 20 1010.5
20260904192308 33 52 3.2 9.7 0.00 0.00 0.00 19 1010.6
20260904191808 33 18 3.2 9.7 0.00 0.00 0.00 20 1010.7
20260904191530 33 94 1.6 9.7 0.00 0.00 0.00 22 1010.8
20260904190802 33 221 3.2 9.7 0.00 0.00 0.00 21 1010.9
20260904190524 34 17 1.6 8.0 0.00 0.00 0.00 21 1011.0
20260904185803 34 99 1.6 9.7 0.00 0.00 0.00 21 1011.0
20260904185306 33 150 3.2 9.7 0.00 0.00 0.00 22 1011.1
20260904184302 33 58 3.2 8.0 0.00 0.00 0.00 22 1011.2
20260904183802 33 88 3.2 8.0 0.00 0.00 0.00 23 1011.2
20260904183302 32 111 3.2 11.3 0.00 0.00 0.00 23 1011.4
20260904182306 32 65 3.2 6.4 0.00 0.00 0.00 24 1011.3
20260904181800 32 55 3.2 8.0 0.00 0.00 0.00 24 1011.3
20260904181254 32 6 3.2 8.0 0.00 0.00 0.00 26 1011.3
20260904180748 32 158 1.6 6.4 0.00 0.00 0.00 26 1011.4
20260904180240 32 150 1.6 6.4 0.00 0.00 0.00 26 1011.3
20260904175735 32 57 3.2 9.7 0.00 0.00 0.00 27 1011.4
20260904175233 32 214 3.2 9.7 0.00 0.00 0.00 27 1011.3
20260904174733 31 41 3.2 9.7 0.00 0.00 0.00 27 1011.3
20260904174232 31 94 4.8 9.7 0.00 0.00 0.00 28 1011.3
20260904173735 31 78 3.2 9.7 0.00 0.00 0.00 28 1011.4
20260904173234 31 14 1.6 6.4 0.00 0.00 0.00 29 1011.4
20260904172736 31 56 1.6 6.4 0.00 0.00 0.00 28 1011.4
20260904172234 31 52 1.6 4.8 0.00 0.00 0.00 28 1011.4
20260904171733 31 101 1.6 6.4 0.00 0.00 0.00 27 1011.5
20260904171233 31 127 1.6 8.0 0.00 0.00 0.00 28 1011.4
20260904170954 31 158 1.6 8.0 0.00 0.00 0.00 28 1011.6
20260904170454 31 66 1.6 6.4 0.00 0.00 0.00 29 1011.5
20260904165729 31 237 3.2 6.4 0.00 0.00 0.00 30 1011.5
20260904165230 31 166 1.6 6.4 0.00 0.00 0.00 29 1011.5
20260904164730 31 180 1.6 6.4 0.00 0.00 0.00 30 1011.4
20260904164229 31 103 1.6 4.8 0.00 0.00 0.00 31 1011.5
20260904163730 30 191 1.6 6.4 0.00 0.00 0.00 31 1011.4
20260904163229 30 194 1.6 6.4 0.00 0.00 0.00 31 1011.3
20260904162731 30 233 1.6 4.8 0.00 0.00 0.00 31 1011.3
20260904162229 30 170 1.6 8.0 0.00 0.00 0.00 32 1011.3
20260904161730 30 173 1.6 8.0 0.00 0.00 0.00 31 1011.2
20260904161230 30 184 1.6 4.8 0.00 0.00 0.00 32 1011.2
20260904160730 30 164 0.0 3.2 0.00 0.00 0.00 34 1011.0
20260904160232 29 120 1.6 4.8 0.00 0.00 0.00 34 1011.1
20260904155730 29 107 1.6 4.8 0.00 0.00 0.00 33 1011.0
20260904155451 29 108 1.6 4.8 0.00 0.00 0.00 35 1010.8
20260904154730 28 205 0.0 4.8 0.00 0.00 0.00 35 1010.9
20260904154229 28 186 0.0 3.2 0.00 0.00 0.00 35 1010.8
20260904153730 28 104 0.0 3.2 0.00 0.00 0.00 37 1010.9
20260904153231 27 72 0.0 3.2 0.00 0.00 0.00 37 1010.9
20260904152730 27 93 0.0 1.6 0.00 0.00 0.00 38 1010.8
20260904152229 27 115 0.0 3.2 0.00 0.00 0.00 40 1010.8
20260904151729 26 150 0.0 3.2 0.00 0.00 0.00 40 1010.9
20260904151229 26 180 0.0 3.2 0.00 0.00 0.00 42 1010.7
20260904150731 26 176 0.0 3.2 0.00 0.00 0.00 43 1010.8
20260904150458 25 102 0.0 1.6 0.00 0.00 0.00 45 1010.7
20260904145952 25 69 0.0 1.6 0.00 0.00 0.00 48 1010.5
20260904145501 25 69 0.0 1.6 0.00 0.00 0.00 49 1010.5
20260904144952 23 69 0.0 3.2 0.00 0.00 0.00 52 1010.4
20260904144229 23 60 0.0 3.2 0.00 0.00 0.00 56 1010.3
20260904143729 22 248 0.0 1.6 0.00 0.00 0.00 55 1010.4
20260904143229 22 248 0.0 1.6 0.00 0.00 0.00 56 1010.2
20260904142729 22 248 0.0 1.6 0.00 0.00 0.00 56 1010.1
20260904142229 22 248 0.0 1.6 0.00 0.00 0.00 55 1010.2
20260904141730 22 247 0.0 1.6 0.00 0.00 0.00 56 1010.1
20260904141229 22 247 0.0 1.6 0.00 0.00 0.00 54 1009.9
20260904140958 22 248 0.0 1.6 0.00 0.00 0.00 55 1009.8
20260904140230 22 248 0.0 0.0 0.00 0.00 0.00 54 1009.7
20260904135458 21 248 0.0 1.6 0.00 0.00 0.00 54 1009.6
20260904134954 21 218 0.0 0.0 0.00 0.00 0.00 55 1009.5
20260904134229 20 218 0.0 0.0 0.00 0.00 0.00 55 1009.5
20260904133730 20 218 0.0 1.6 0.00 0.00 0.00 56 1009.5
20260904133229 20 218 0.0 1.6 0.00 0.00 0.00 57 1009.3
20260904132730 20 218 0.0 0.0 0.00 0.00 0.00 55 1009.3
20260904132229 21 218 0.0 3.2 0.00 0.00 0.00 55 1009.3
20260904132001 21 218 0.0 3.2 0.00 0.00 0.00 53 1009.1
20260904131228 21 165 0.0 1.6 0.00 0.00 0.00 53 1009.1
20260904131002 21 165 0.0 1.6 0.00 0.00 0.00 53 1009.0
20260904130230 21 174 0.0 0.0 0.00 0.00 0.00 53 1009.0
20260904125734 21 174 0.0 0.0 0.00 0.00 0.00 54 1008.9
20260904125229 21 174 0.0 0.0 0.00 0.00 0.00 54 1008.9
20260904124729 21 174 0.0 0.0 0.00 0.00 0.00 54 1008.9
20260904124230 21 174 0.0 0.0 0.00 0.00 0.00 53 1008.8
20260904123729 21 174 0.0 0.0 0.00 0.00 0.00 53 1008.8
20260904123230 21 174 0.0 0.0 0.00 0.00 0.00 52 1008.7
20260904122730 22 174 0.0 1.6 0.00 0.00 0.00 51 1008.7
20260904122229 22 174 0.0 1.6 0.00 0.00 0.00 49 1008.7
20260904121729 22 151 0.0 0.0 0.00 0.00 0.00 49 1008.7
20260904121443 23 149 0.0 3.2 0.00 0.00 0.00 46 1008.7
20260904120716 22 149 0.0 3.2 0.00 0.00 0.00 47 1008.7
20260904120210 22 162 0.0 3.2 0.00 0.00 0.00 48 1008.7
20260904115703 22 182 0.0 1.6 0.00 0.00 0.00 48 1008.7
20260904115202 22 244 0.0 4.8 0.00 0.00 0.00 48 1008.8
20260904114702 22 121 1.6 4.8 0.00 0.00 0.00 48 1008.8
20260904114201 22 201 0.0 3.2 0.00 0.00 0.00 49 1008.7
20260904113702 22 176 0.0 1.6 0.00 0.00 0.00 48 1008.7
20260904113202 22 166 0.0 1.6 0.00 0.00 0.00 48 1008.6
20260904112702 22 155 0.0 1.6 0.00 0.00 0.00 48 1008.7
20260904112203 22 155 0.0 3.2 0.00 0.00 0.00 49 1008.7
20260904111926 22 219 0.0 3.2 0.00 0.00 0.00 50 1008.8
20260904111428 22 238 0.0 3.2 0.00 0.00 0.00 51 1008.8
20260904110926 22 162 0.0 3.2 0.00 0.00 0.00 51 1008.7
20260904110426 22 221 0.0 3.2 0.00 0.00 0.00 51 1008.6
20260904105701 22 199 0.0 3.2 0.00 0.00 0.00 50 1008.5
20260904105201 22 227 0.0 3.2 0.00 0.00 0.00 50 1008.5
20260904104701 22 187 0.0 1.6 0.00 0.00 0.00 50 1008.6
20260904104202 22 157 0.0 0.0 0.00 0.00 0.00 50 1008.4
20260904103702 22 157 0.0 0.0 0.00 0.00 0.00 50 1008.4
20260904103201 22 160 0.0 0.0 0.00 0.00 0.00 50 1008.4
20260904102701 22 158 0.0 0.0 0.00 0.00 0.00 50 1008.4
20260904102201 22 158 0.0 0.0 0.00 0.00 0.00 49 1008.3
20260904101701 22 158 0.0 0.0 0.00 0.00 0.00 50 1008.2
20260904101204 22 158 0.0 0.0 0.00 0.00 0.00 49 1008.1
20260904100702 23 158 0.0 0.0 0.00 0.00 0.00 49 1008.2
20260904100203 23 154 0.0 1.6 0.00 0.00 0.00 49 1008.1
20260904095702 23 154 0.0 1.6 0.00 0.00 0.00 49 1008.1
20260904095204 23 176 0.0 1.6 0.00 0.00 0.00 49 1008.2
20260904094927 23 176 0.0 1.6 0.00 0.00 0.00 49 1008.2
20260904094427 23 179 0.0 0.0 0.00 0.00 0.00 49 1008.1
20260904093701 23 178 0.0 3.2 0.00 0.00 0.00 49 1008.1
20260904093201 23 178 0.0 3.2 0.00 0.00 0.00 49 1008.2
20260904092700 23 160 0.0 0.0 0.00 0.00 0.00 48 1008.3
20260904092424 23 160 0.0 0.0 0.00 0.00 0.00 47 1008.1
20260904091700 23 160 0.0 3.2 0.00 0.00 0.00 47 1008.1
20260904091201 23 173 1.6 3.2 0.00 0.00 0.00 46 1008.2
20260904090701 23 172 0.0 1.6 0.00 0.00 0.00 46 1008.2
20260904090157 23 147 0.0 1.6 0.00 0.00 0.00 46 1008.2
20260904085651 24 150 0.0 3.2 0.00 0.00 0.00 45 1008.2
20260904085146 24 164 0.0 3.2 0.00 0.00 0.00 45 1008.3
20260904084640 24 226 0.0 3.2 0.00 0.00 0.00 45 1008.3
20260904084134 24 208 0.0 3.2 0.00 0.00 0.00 45 1008.5
20260904083635 24 175 0.0 1.6 0.00 0.00 0.00 45 1008.5
20260904083132 24 200 0.0 1.6 0.00 0.00 0.00 45 1008.6
20260904082632 24 121 0.0 3.2 0.00 0.00 0.00 45 1008.6
20260904082132 24 163 1.6 3.2 0.00 0.00 0.00 45 1008.6
20260904081633 24 172 1.6 4.8 0.00 0.00 0.00 45 1008.7
20260904081402 24 177 1.6 4.8 0.00 0.00 0.00 45 1008.7
20260904080632 24 182 1.6 4.8 0.00 0.00 0.00 45 1008.8
20260904080134 24 145 1.6 4.8 0.00 0.00 0.00 46 1008.8
20260904075634 24 203 1.6 6.4 0.00 0.00 0.00 46 1008.6
20260904075135 24 205 1.6 6.4 0.00 0.00 0.00 47 1008.8
20260904074636 25 143 0.0 4.8 0.00 0.00 0.00 47 1008.7
20260904074133 25 160 0.0 1.6 0.00 0.00 0.00 47 1008.8
20260904073133 25 172 0.0 3.2 0.00 0.00 0.00 47 1008.8
20260904072630 25 167 0.0 1.6 0.00 0.00 0.00 47 1008.7
20260904071351 25 161 1.6 3.2 0.00 0.00 0.00 46 1008.5
20260904070846 25 203 1.6 3.2 0.00 0.00 0.00 45 1008.4
20260904070122 25 188 0.0 3.2 0.00 0.00 0.00 45 1008.3
20260904065621 25 140 0.0 0.0 0.00 0.00 0.00 45 1008.3
20260904065153 25 129 0.0 1.6 0.00 0.00 0.00 44 1008.5
20260904065131 25 129 0.0 3.2 0.00 0.00 0.00 44 1008.2
20260904064115 25 151 1.6 3.2 0.00 0.00 0.00 43 1008.2
20260904063617 26 162 0.0 3.2 0.00 0.00 0.00 43 1008.2
20260904063116 26 128 0.0 1.6 0.00 0.00 0.00 43 1008.2
20260904062614 26 139 0.0 3.2 0.00 0.00 0.00 43 1008.2
20260904062337 26 143 1.6 4.8 0.00 0.00 0.00 43 1008.2
20260904061614 26 172 1.6 4.8 0.00 0.00 0.00 42 1008.2
20260904061115 26 129 0.0 1.6 0.00 0.00 0.00 40 1008.2
20260904060614 26 34 0.0 1.6 0.00 0.00 0.00 40 1008.1
20260904060115 26 30 0.0 1.6 0.00 0.00 0.00 40 1008.1
20260904055612 26 30 0.0 1.6 0.00 0.00 0.00 40 1008.1
20260904055336 26 30 0.0 1.6 0.00 0.00 0.00 39 1008.1
20260904054610 26 50 0.0 1.6 0.00 0.00 0.00 39 1008.1
20260904054108 27 50 0.0 1.6 0.00 0.00 0.00 39 1008.1
20260904053607 27 86 0.0 1.6 0.00 0.00 0.00 39 1008.0
20260904053102 27 122 0.0 1.6 0.00 0.00 0.00 39 1008.1
20260904052603 27 122 0.0 4.8 0.00 0.00 0.00 39 1008.2
20260904052101 27 144 0.0 4.8 0.00 0.00 0.00 40 1008.2
20260904051602 27 134 0.0 1.6 0.00 0.00 0.00 40 1008.3
20260904051331 27 135 0.0 4.8 0.00 0.00 0.00 39 1008.3
20260904050829 27 119 0.0 4.8 0.00 0.00 0.00 39 1008.1
20260904045828 28 150 0.0 1.6 0.00 0.00 0.00 37 1008.2
20260904045102 28 91 0.0 1.6 0.00 0.00 0.00 37 1008.2
20260904044603 28 174 0.0 1.6 0.00 0.00 0.00 37 1008.2
20260904044103 28 92 0.0 1.6 0.00 0.00 0.00 37 1008.2
20260904043601 28 107 0.0 3.2 0.00 0.00 0.00 37 1008.2
20260904043101 28 110 0.0 3.2 0.00 0.00 0.00 37 1008.2
20260904042602 28 63 0.0 3.2 0.00 0.00 0.00 37 1008.2
20260904042101 29 75 0.0 1.6 0.00 0.00 0.00 37 1008.2
20260904040558 29 33 0.0 1.6 0.00 0.00 0.00 37 1008.0
20260904040056 29 13 0.0 3.2 0.00 0.00 0.00 37 1008.0
20260904035556 30 315 0.0 3.2 0.00 0.00 0.00 36 1008.0
20260904035053 30 31 1.6 6.4 0.00 0.00 0.00 36 1007.8
20260904034553 30 71 1.6 6.4 0.00 0.00 0.00 36 1007.7
20260904034052 30 69 1.6 8.0 0.00 0.00 0.00 35 1007.7
20260904033552 30 26 1.6 9.7 0.00 0.00 0.00 35 1007.6
20260904033053 31 45 1.6 9.7 0.00 0.00 0.00 35 1007.5
20260904032550 31 351 1.6 8.0 0.00 0.00 0.00 34 1007.5
20260904032052 31 51 1.6 8.0 0.00 0.00 0.00 33 1007.4
20260904031552 31 91 1.6 8.0 0.00 0.00 0.00 32 1007.3
20260904031052 31 75 1.6 8.0 0.00 0.00 0.00 32 1007.2
20260904030548 31 124 0.0 6.4 0.00 0.00 0.00 31 1007.2
20260904030314 31 159 0.0 3.2 0.00 0.00 0.00 30 1007.1
20260904025548 31 120 0.0 4.8 0.00 0.00 0.00 31 1006.9
20260904025046 32 6 1.6 8.0 0.00 0.00 0.00 30 1006.8
20260904024813 32 311 1.6 8.0 0.00 0.00 0.00 30 1006.7
20260904024046 32 43 1.6 6.4 0.00 0.00 0.00 29 1006.7
20260904023545 32 340 1.6 8.0 0.00 0.00 0.00 28 1006.6
20260904023046 32 319 1.6 8.0 0.00 0.00 0.00 28 1006.4
20260904022545 32 16 1.6 6.4 0.00 0.00 0.00 27 1006.5
20260904022309 32 13 3.2 9.7 0.00 0.00 0.00 27 1006.4
20260904021540 33 357 1.6 9.7 0.00 0.00 0.00 26 1006.5